Regional Weather Roundup
Issued by NWS Kansas City/Pleasant Hill, MO

Home | Current Version | Previous Version | Text Only | Print | Product List | Glossary On
Versions: 1 2 3 4 5 6 7 8 9 10 11 12 13 14 15 16 17 18 19 20 21 22 23 24 25 26 27 28 29 30 31 32 33 34 35 36 37 38 39 40 41 42 43 44 45 46 47 48 49 50
000
ASUS43 KEAX 010711
RWREAX

WEATHER ROUNDUP FOR EASTERN KANSAS AND NORTHWEST MISSOURI
NATIONAL WEATHER SERVICE KANSAS CITY/PLEASANT HILL MO
100 AM CST SUN FEB 01 2015

KSZ040-057-103>105-MOZ028-029-037-043-010800-
...KANSAS CITY METROPOLITAN AREA...

CITY           SKY/WX    TMP DP  RH WIND       PRES   REMARKS
K.C. INTL      LGT SNOW  33  33 100 SE10      29.82F FOG     WCI  25
K.C. DOWNTOWN  FLURRIES  34  32  92 SE5       29.83F WCI  30
LEES SUMMIT    LGT SNOW  33  32  96 SE7       29.84F FOG     WCI  27
OLATHE - IXD   LGT RAIN  34  34 100 S8        29.83F FOG     WCI  27
OLATHE - OJC   LGT SNOW  34  34 100 S7        29.82F FOG     WCI  28
LAWRENCE       LGT SNOW  32  32 100 SE7       29.82F FOG     WCI  26

$$

MOZ001>008-011>017-020>025-030>033-038>040-044>046-053-054-010800-
...NORTHERN AND CENTRAL MISSOURI...

CITY           SKY/WX    TMP DP  RH WIND       PRES   REMARKS
ST. JOSEPH     LGT SNOW  32  32 100 SE3       29.83F FOG
MOSBY          LGT SNOW  32  32 100 SE7       29.85F WCI  26
WARRENSBURG    LGT RAIN  34  32  93 E7        29.86F WCI  28
WHITEMAN AFB   LGT RAIN  33  32  95 SE6       29.86F WCI  28
CLINTON        LGT RAIN  36  36 100 SE5       29.87F WCI  32
SEDALIA        MIX PCPN  34  32  92 E9        29.89F WCI  27
WARSAW         NOT AVBL
MARSHALL       LGT SNOW  36  34  93 E10       29.92F WCI  28
CHILLICOTHE      N/A     33  32  96 VRB6      29.88F WCI  28
MOBERLY        LGT SNOW  34  30  86 SE7       29.93F WCI  28
KIRKSVILLE     SNOW      33  33 100 SE10      29.90F VSB 1/2 WCI  25

$$

MOZ041-047>049-056>058-063>065-088>090-097-010800-
...EASTERN AND SOUTHERN MISSOURI...

CITY           SKY/WX    TMP DP  RH WIND       PRES   REMARKS
ST. LOUIS INTL LGT RAIN  39  29  67 SE10      29.99F WCI  32
SPIRIT OF STL  LGT RAIN  37  29  72 CALM      29.97F
COLUMBIA       LGT RAIN  34  31  88 E7        29.92F WCI  28
JEFFERSON CITY LGT RAIN  35  31  85 E6        29.93F WCI  30
MEXICO         LGT RAIN  36  34  93 E9        29.94F WCI  29
HANNIBAL       LGT SNOW  36  32  87 SE8       29.96F WCI  29
ROLLA          RAIN      35  30  82 SE10      29.87F WCI  27
LEBANON        MIX PCPN  36  32  87 S16       29.84F WCI  26
OSAGE BEACH    CLOUDY    36  32  87 SE3       29.87F
SPRINGFIELD    LGT RAIN  37  33  85 S21       29.82F FOG     WCI  26
BRANSON        LGT RAIN  37  32  81 SE7       29.86F WCI  32
NEVADA         RAIN      37  37 100 S3        29.85F
JOPLIN         RAIN      39  38  96 W6        29.85F FOG     WCI  35
WEST PLAINS    CLOUDY    39  24  55 S9        29.92F WCI  33

$$

IAZ060-094-KSZ022-034>040-054-083-096-NEZ052-066-093-010800-
...KANSAS...SOUTHEAST NEBRASKA AND IOWA...

CITY           SKY/WX    TMP DP  RH WIND       PRES   REMARKS
TOPEKA         LGT RAIN  33  32  96 E5        29.81F FOG     WCI  29
MANHATTAN      LGT RAIN  35  34  96 NE5       29.77F FOG     WCI  31
EMPORIA        LGT RAIN  38  38 100 S13       29.77F WCI  30
CHANUTE        LGT RAIN  40  39  97 S9        29.82F FOG     WCI  34
WICHITA        CLOUDY    41  41 100 SW14      29.77F WCI  33
OMAHA          LGT SNOW  33  32  96 E5        29.84F VSB 3/4 WCI  29
LINCOLN        LGT SNOW  32  31  96 NE8       29.83F FOG     WCI  25
FALLS CITY     LGT SNOW  32  31  96 SE6       29.81F FOG     WCI  26
LAMONI         LGT SNOW  32  32 100 SE8       29.84F VSB 1   WCI  25
DES MOINES     LGT SNOW  33  31  92 E8        29.90F VSB 3/4 WCI  26

$$




USA.gov is the U.S. government's official web portal to all federal, state and local government web resources and services.